Other Surface Observations
Issued by NWS Charleston, SC

Home | Current Version | Previous Version | Text Only | Print | Product List | Glossary On
Versions: 1 2 3 4 5 6 7 8 9 10 11 12 13 14 15 16 17 18 19 20 21 22 23 24 25 26 27 28 29 30 31 32 33 34 35 36 37 38 39 40 41 42 43 44 45 46 47 48 49 50
000
SXUS52 KCHS 011711
OSOCHS

MARINE OBSERVATIONS
NATIONAL WEATHER SERVICE CHARLESTON SC
1200 PM EST SUN FEB 01 2015

...DOWNTOWN CHARLESTON AND HARBOR...

CITY           SKY/WX    TMP DP  RH WIND       PRES   REMARKS
WATERFRONT PRK   N/A     57 N/A N/A E9          N/A
FORT JOHNSON   NOT AVBL

...LAKE MOULTRIE...

CITY           SKY/WX    TMP DP  RH WIND       PRES   REMARKS
PINOPOLIS        N/A     63  39  42 VRB2      30.19F

...LAKE AND SUPPLEMENTAL COASTAL OBSERVATIONS...

STATION/POSITION TIME  TEMP    WIND        PRES    WAVE   SWELL
                       AIR SEA DIR/SP/G            HT/PER HT/PER/DIR
                 (UTC) (F)     (DEG/KT/KT) (MB)    (FT/S) (FT/S/D)
FORT PULASKI     1600   62 52  120/  7/ 11 1025.4F
SAPELO ISLAND    1600   67     140/  8     1024.0F
UPR LAKE MARION  NOT AVBL
WINYAH BAY       1545   54     130/  4     1026.0
LAKE MURRAY      1600   52     140/  3/  4 1023.4F
ACE BASIN NERRS  NOT AVBL


...C-MAN AND BUOY OBSERVATIONS...

STATION/POSITION TIME  TEMP    WIND        PRES    WAVE   SWELL
                       AIR SEA DIR/SP/G            HT/PER HT/PER/DIR
                 (UTC) (F)     (DEG/KT/KT) (MB)    (FT/S) (FT/S/D)
BUOY 41004       1650   62 71  180/ 10/ 14 1025.4F   4/11   3/11
BUOY 41008       1650   58 54  110/  6/  8 1023.9F   2/10   2/ 80/10
FOLLY BEACH CMAN 1700   54      90/  6/  6 1025.0F
CAPERS NS BUOY   1600   55     100/  4/  6   N/A
FRIPP NS BUOY    1600   58     100/  6/  6 1024.8F
5E ST. MARYS GA  1621      57                N/A     3/10   2/ 90/11


STATION/POSITION TIME  TEMP    WIND        PRES    WAVE   SWELL
                       AIR SEA DIR/SP/G            HT/PER HT/PER/DIR
                 (UTC) (F)     (DEG/KT/KT) (MB)    (FT/S) (FT/S/D)
FRYING PAN BUOY  1650   58 63  190/ 12/ 16 1026.5F   2/11   2/ 80/11
BUOY 41025       1650   53 71  270/ 14/ 17 1025.8F   5/10   5/ 60/10
CAPE LOOKOUT NC  1700   50     260/  3/  4 1024.6F
BUOY 41002       1650   60 70  230/  2/  6 1027.9F   8/11   8/ 10/11
BUOY 41010       1620   67 74  110/ 12/ 16 1025.8F
ST AUGUSTINE FL  1700   61      70/  5/  5 1024.4F

$$



USA.gov is the U.S. government's official web portal to all federal, state and local government web resources and services.